Steele Ranch
DateTemperatureDew Point
07/12 - 09:30 PM79.6°66.9°
07/12 - 09:15 PM79.6°66.5°
07/12 - 09:00 PM80.0°66.3°
07/12 - 08:45 PM81.7°68.0°
07/12 - 08:30 PM83.7°69.6°
07/12 - 08:15 PM86.0°69.8°
07/12 - 08:00 PM88.6°68.2°
07/12 - 07:45 PM91.6°64.4°
07/12 - 07:30 PM94.6°63.1°
07/12 - 07:15 PM96.5°61.5°
07/12 - 07:00 PM97.2°61.8°
07/12 - 06:45 PM98.2°62.0°
07/12 - 06:30 PM98.7°62.5°
07/12 - 06:15 PM99.4°64.7°
07/12 - 06:00 PM100.3°66.0°
07/12 - 05:45 PM101.8°65.1°
07/12 - 05:30 PM101.8°64.2°
07/12 - 05:15 PM100.7°65.6°
07/12 - 05:00 PM99.9°63.4°
07/12 - 04:45 PM100.1°63.5°
07/12 - 04:30 PM101.2°62.7°
07/12 - 04:15 PM102.4°60.6°
07/12 - 04:00 PM102.8°63.4°
07/12 - 03:45 PM101.8°63.0°
07/12 - 03:30 PM102.8°64.2°
07/12 - 03:15 PM103.9°61.6°
07/12 - 03:00 PM104.3°60.7°
07/12 - 02:45 PM104.1°61.2°
07/12 - 02:30 PM102.6°59.7°
07/12 - 02:15 PM100.8°64.1°
07/12 - 02:00 PM98.7°60.7°
07/12 - 01:45 PM98.8°62.7°
07/12 - 01:30 PM99.9°62.6°
07/12 - 01:15 PM100.1°60.6°
07/12 - 01:00 PM102.1°59.1°
07/12 - 12:45 PM102.4°60.2°
07/12 - 12:30 PM101.8°59.2°
07/12 - 12:15 PM100.5°58.5°
07/12 - 12:00 PM99.9°58.9°
07/12 - 11:45 AM98.8°60.7°
07/12 - 11:30 AM97.3°58.1°
07/12 - 11:15 AM98.0°58.1°
07/12 - 11:00 AM97.6°58.4°
07/12 - 10:45 AM96.3°58.6°
07/12 - 10:30 AM94.2°58.2°
07/12 - 10:15 AM93.0°59.8°
07/12 - 10:00 AM91.6°60.3°
07/12 - 09:45 AM91.1°59.3°
07/12 - 09:30 AM90.9°61.1°
07/12 - 09:15 AM89.0°61.4°
07/12 - 09:00 AM87.1°63.0°
07/12 - 08:45 AM84.6°63.3°
07/12 - 08:30 AM81.7°62.1°
07/12 - 08:15 AM79.2°64.8°
07/12 - 08:00 AM77.9°64.8°
07/12 - 07:45 AM76.3°65.3°
07/12 - 07:30 AM74.5°64.3°
07/12 - 07:15 AM72.9°63.4°
07/12 - 07:00 AM71.1°60.9°
07/12 - 06:45 AM70.1°58.9°
07/12 - 06:30 AM69.7°58.8°
07/12 - 06:15 AM69.3°58.4°
07/12 - 06:00 AM69.4°57.3°
07/12 - 05:45 AM69.3°56.3°
07/12 - 05:30 AM69.3°55.6°
07/12 - 05:15 AM69.4°55.4°
07/12 - 05:00 AM69.6°54.7°
07/12 - 04:45 AM69.9°55.5°
07/12 - 04:30 AM70.2°54.9°
07/12 - 04:15 AM70.0°54.6°
07/12 - 04:00 AM69.9°55.7°
07/12 - 03:45 AM70.0°55.3°
07/12 - 03:30 AM70.3°56.0°
07/12 - 03:15 AM70.9°57.1°
07/12 - 03:00 AM71.4°56.9°
07/12 - 02:45 AM72.1°58.0°
07/12 - 02:30 AM72.7°57.3°
07/12 - 02:15 AM73.1°56.3°
07/12 - 02:00 AM73.6°55.9°
07/12 - 01:45 AM74.0°55.2°
07/12 - 01:30 AM74.2°55.4°
07/12 - 01:15 AM74.3°54.3°
07/12 - 01:00 AM74.2°55.1°
07/12 - 12:45 AM74.1°56.3°
07/12 - 12:30 AM74.1°57.3°
07/12 - 12:15 AM73.7°58.1°
07/12 - 12:00 AM73.6°60.1°
07/11 - 11:45 PM74.2°62.2°
07/11 - 11:30 PM75.0°62.7°
07/11 - 11:15 PM75.6°62.5°
07/11 - 11:00 PM76.5°62.6°
07/11 - 10:45 PM77.3°63.9°
07/11 - 10:30 PM77.9°64.7°
07/11 - 10:15 PM78.0°64.9°
07/11 - 10:00 PM78.3°63.9°
07/11 - 09:45 PM78.7°63.5°
07/11 - 09:30 PM79.5°63.9°
07/11 - 09:15 PM80.4°66.2°
07/11 - 09:00 PM82.1°68.7°
07/11 - 08:45 PM83.8°69.7°
07/11 - 08:30 PM86.2°69.8°
07/11 - 08:15 PM88.5°69.7°
07/11 - 08:00 PM91.9°70.0°
07/11 - 07:45 PM95.3°69.4°
07/11 - 07:30 PM98.3°68.3°
07/11 - 07:15 PM100.5°66.7°
07/11 - 07:00 PM102.1°63.9°
07/11 - 06:45 PM103.6°62.7°
07/11 - 06:30 PM105.2°65.2°
07/11 - 06:15 PM106.6°65.2°
07/11 - 06:00 PM107.3°64.4°
07/11 - 05:45 PM107.5°62.8°
07/11 - 05:30 PM107.2°62.3°
07/11 - 05:15 PM107.3°62.4°
07/11 - 05:00 PM107.8°62.8°
07/11 - 04:45 PM108.0°62.7°
07/11 - 04:30 PM108.4°62.6°
07/11 - 04:15 PM108.9°62.7°
07/11 - 04:00 PM109.3°61.9°
07/11 - 03:45 PM108.8°61.5°
07/11 - 03:30 PM108.5°63.1°
07/11 - 03:15 PM108.0°63.6°
07/11 - 03:00 PM108.1°63.5°
07/11 - 02:45 PM107.8°63.9°
07/11 - 02:30 PM107.3°63.8°
07/11 - 02:15 PM107.0°63.3°
07/11 - 02:00 PM106.5°62.8°
07/11 - 01:45 PM106.2°63.2°
07/11 - 01:30 PM105.3°64.3°
07/11 - 01:15 PM104.5°64.5°
07/11 - 01:00 PM104.0°64.6°
07/11 - 12:45 PM103.1°65.1°
07/11 - 12:30 PM102.7°65.6°
07/11 - 12:15 PM102.1°65.3°
07/11 - 12:00 PM102.0°65.6°
07/11 - 11:45 AM101.3°66.1°
07/11 - 11:30 AM100.6°66.1°
07/11 - 11:15 AM99.9°64.4°
07/11 - 11:00 AM99.1°64.5°
07/11 - 10:45 AM97.5°64.9°
07/11 - 10:30 AM96.7°65.6°
07/11 - 10:15 AM95.1°65.1°
07/11 - 10:00 AM93.6°64.7°
07/11 - 09:45 AM92.4°64.9°
07/11 - 09:30 AM91.1°65.5°
07/11 - 09:15 AM89.5°65.5°
07/11 - 09:00 AM87.8°65.0°
07/11 - 08:45 AM85.9°64.9°
07/11 - 08:30 AM84.0°64.1°
07/11 - 08:15 AM82.1°63.5°
07/11 - 08:00 AM79.9°63.3°
07/11 - 07:45 AM77.8°62.5°
07/11 - 07:30 AM75.8°62.5°
07/11 - 07:15 AM73.5°61.4°
07/11 - 07:00 AM71.1°61.1°
07/11 - 06:45 AM69.3°59.9°
07/11 - 06:30 AM67.9°58.2°
07/11 - 06:15 AM67.4°57.4°
07/11 - 06:00 AM67.3°57.0°
07/11 - 05:45 AM67.4°56.5°
07/11 - 05:30 AM67.5°56.7°
07/11 - 05:15 AM67.6°57.1°
07/11 - 05:00 AM67.6°56.7°
07/11 - 04:45 AM68.0°56.8°
07/11 - 04:30 AM68.3°57.7°
07/11 - 04:15 AM68.6°58.1°
07/11 - 04:00 AM68.7°57.0°
07/11 - 03:45 AM68.9°56.8°
07/11 - 03:30 AM69.0°57.2°
07/11 - 03:15 AM69.2°57.5°
07/11 - 03:00 AM69.4°57.8°
07/11 - 02:45 AM69.6°58.5°
07/11 - 02:30 AM69.8°58.2°
07/11 - 02:15 AM70.2°58.3°
07/11 - 02:00 AM70.4°58.0°
07/11 - 01:45 AM70.2°57.0°
07/11 - 01:30 AM69.9°57.2°
07/11 - 01:15 AM70.4°58.6°
07/11 - 01:00 AM70.6°58.6°
07/11 - 12:45 AM70.8°58.4°
07/11 - 12:30 AM71.2°58.8°
07/11 - 12:15 AM71.4°59.4°
07/11 - 12:00 AM71.5°60.3°
07/10 - 11:45 PM71.8°60.3°
07/10 - 11:30 PM72.4°60.6°
07/10 - 11:15 PM73.1°61.3°
07/10 - 11:00 PM73.6°61.8°
07/10 - 10:45 PM74.1°61.2°
07/10 - 10:30 PM74.8°62.4°